When you browse on this site, cookies collect data to enhance your experience and personalize the content and advertising you see.
Visit our Privacy Policy to learn more. By continuing to use the site, you agree to this use of cookies and data.
  • In Hungary
  • List of Countries
  • For 7 days
  • Water Temperature
  • Weather Map
  • News
  • Weather Widgets
  • user-avatar
    Login

    Hourly Weather Byczen

    Today, 13 November, Wednesday

    Time Temperature Precipitation Wind Pressure Humidity
    00:00 +7°C° 1 mm 1 mps 729 mmHg 98%
    01:00 +7°C° 1 mm 1 mps 729 mmHg 98%
    02:00 +7°C° 0.2 mm 1 mps 729 mmHg 98%
    03:00 +7°C° 0.2 mm 1 mps 728 mmHg 98%
    04:00 +7°C° 0.2 mm 1 mps 728 mmHg 98%
    05:00 +7°C° 0 mm 1 mps 728 mmHg 98%
    06:00 +7°C° 0 mm 1 mps 728 mmHg 98%
    07:00 +8°C° 0 mm 1 mps 727 mmHg 98%
    08:00 +8°C° 0.3 mm 1 mps 727 mmHg 97%
    09:00 +8°C° 0.3 mm 1 mps 727 mmHg 97%
    10:00 +8°C° 0.3 mm 1 mps 727 mmHg 97%
    11:00 +8°C° 1.5 mm 1 mps 727 mmHg 97%
    12:00 +8°C° 1.5 mm 1 mps 727 mmHg 97%
    13:00 +4°C° 0 mm 2 mps 728 mmHg 90%
    14:00 +4°C° 0.7 mm 2 mps 728 mmHg 92%
    15:00 +4°C° 0.7 mm 2 mps 728 mmHg 93%
    16:00 +4°C° 0.7 mm 2 mps 728 mmHg 95%
    17:00 +4°C° 2.3 mm 2 mps 728 mmHg 96%
    18:00 +4°C° 2.3 mm 2 mps 728 mmHg 96%
    19:00 +4°C° 2.3 mm 2 mps 728 mmHg 97%
    20:00 +4°C° 0.9 mm 2 mps 729 mmHg 97%
    21:00 +4°C° 0.9 mm 2 mps 729 mmHg 96%
    22:00 +3°C° 0.9 mm 3 mps 730 mmHg 96%
    23:00 +2°C° 0.6 mm 3 mps 730 mmHg 96%

    Tomorrow, 14 November, Thursday

    Time Temperature Precipitation Wind Pressure Humidity
    00:00 +2°C° 0.6 mm 3 mps 731 mmHg 96%
    01:00 +2°C° 0.6 mm 3 mps 732 mmHg 95%
    02:00 +2°C° 0 mm 3 mps 732 mmHg 93%
    03:00 +3°C° 0 mm 2 mps 732 mmHg 91%
    04:00 +3°C° 0 mm 2 mps 732 mmHg 89%
    05:00 +3°C° 0 mm 2 mps 733 mmHg 89%
    06:00 +3°C° 0 mm 1 mps 733 mmHg 89%
    07:00 +3°C° 0 mm 1 mps 733 mmHg 90%
    08:00 +4°C° 0 mm 1 mps 734 mmHg 85%
    09:00 +5°C° 0 mm 1 mps 734 mmHg 81%
    10:00 +6°C° 0 mm 1 mps 734 mmHg 77%
    11:00 +6°C° 0 mm 2 mps 734 mmHg 74%
    12:00 +7°C° 0 mm 2 mps 734 mmHg 71%
    13:00 +7°C° 0 mm 2 mps 734 mmHg 68%
    14:00 +6°C° 0 mm 2 mps 734 mmHg 73%
    15:00 +5°C° 0 mm 2 mps 734 mmHg 78%
    16:00 +5°C° 0 mm 2 mps 734 mmHg 84%
    17:00 +4°C° 0 mm 2 mps 734 mmHg 86%
    18:00 +4°C° 0 mm 2 mps 734 mmHg 88%
    19:00 +3°C° 0 mm 2 mps 734 mmHg 90%
    20:00 +4°C° 0 mm 2 mps 733 mmHg 91%
    21:00 +4°C° 0 mm 2 mps 733 mmHg 92%
    22:00 +4°C° 0 mm 2 mps 733 mmHg 93%
    23:00 +4°C° 0 mm 2 mps 733 mmHg 92%

    Day after tomorrow, 15 November, Friday

    Time Temperature Precipitation Wind Pressure Humidity
    00:00 +3°C° 0 mm 3 mps 733 mmHg 92%
    01:00 +3°C° 0 mm 3 mps 732 mmHg 92%
    02:00 +4°C° 0 mm 3 mps 732 mmHg 91%
    03:00 +4°C° 0 mm 3 mps 732 mmHg 90%
    04:00 +4°C° 0 mm 4 mps 731 mmHg 89%
    05:00 +5°C° 0 mm 4 mps 731 mmHg 89%
    06:00 +5°C° 0 mm 4 mps 732 mmHg 89%
    07:00 +6°C° 0 mm 4 mps 732 mmHg 89%
    08:00 +7°C° 0 mm 5 mps 732 mmHg 86%
    09:00 +8°C° 0 mm 5 mps 732 mmHg 84%
    10:00 +10°C° 0 mm 5 mps 732 mmHg 81%
    11:00 +12°C° 0 mm 5 mps 732 mmHg 78%
    12:00 +12°C° 0 mm 5 mps 732 mmHg 76%
    13:00 +13°C° 0 mm 5 mps 732 mmHg 73%
    14:00 +12°C° 0 mm 5 mps 731 mmHg 76%
    15:00 +11°C° 0 mm 4 mps 731 mmHg 79%
    16:00 +11°C° 0 mm 4 mps 731 mmHg 82%
    17:00 +10°C° 0 mm 4 mps 731 mmHg 83%
    18:00 +9°C° 0 mm 5 mps 731 mmHg 83%
    19:00 +9°C° 0 mm 5 mps 731 mmHg 84%
    20:00 +10°C° 0 mm 4 mps 731 mmHg 85%
    21:00 +10°C° 0 mm 4 mps 732 mmHg 85%
    22:00 +10°C° 0 mm 3 mps 732 mmHg 85%
    23:00 +10°C° 0 mm 3 mps 732 mmHg 85%

    16 November, Saturday

    Time Temperature Precipitation Wind Pressure Humidity
    00:00 +10°C° 0 mm 3 mps 732 mmHg 86%
    01:00 +10°C° 0 mm 3 mps 732 mmHg 86%
    02:00 +10°C° 0 mm 4 mps 731 mmHg 85%
    03:00 +10°C° 0 mm 4 mps 731 mmHg 85%
    04:00 +10°C° 0 mm 4 mps 730 mmHg 85%
    05:00 +9°C° 0.2 mm 5 mps 730 mmHg 84%
    06:00 +10°C° 0.2 mm 6 mps 730 mmHg 83%
    07:00 +10°C° 0.2 mm 6 mps 730 mmHg 82%
    08:00 +10°C° 0 mm 6 mps 731 mmHg 80%
    09:00 +11°C° 0 mm 6 mps 731 mmHg 78%
    10:00 +11°C° 0 mm 6 mps 731 mmHg 76%
    11:00 +13°C° 0 mm 6 mps 732 mmHg 73%
    12:00 +12°C° 0 mm 7 mps 732 mmHg 70%
    13:00 +12°C° 0 mm 7 mps 732 mmHg 67%
    14:00 +11°C° 0 mm 6 mps 732 mmHg 70%
    15:00 +10°C° 0 mm 6 mps 733 mmHg 73%
    16:00 +9°C° 0 mm 5 mps 734 mmHg 76%
    17:00 +8°C° 0 mm 4 mps 734 mmHg 78%
    18:00 +8°C° 0 mm 3 mps 735 mmHg 81%
    19:00 +7°C° 0 mm 2 mps 736 mmHg 84%
    20:00 +6°C° 0 mm 2 mps 736 mmHg 85%
    21:00 +6°C° 0 mm 2 mps 737 mmHg 86%
    22:00 +6°C° 0 mm 2 mps 737 mmHg 87%
    23:00 +7°C° 0 mm 1 mps 737 mmHg 88%

    17 November, Sunday

    Time Temperature Precipitation Wind Pressure Humidity
    00:00 +7°C° 0 mm 1 mps 737 mmHg 89%
    01:00 +7°C° 0 mm 1 mps 737 mmHg 90%
    02:00 +6°C° 0 mm 1 mps 737 mmHg 90%
    03:00 +6°C° 0 mm 1 mps 737 mmHg 90%
    04:00 +5°C° 0 mm 0 mps 737 mmHg 90%
    05:00 +6°C° 0 mm 0 mps 737 mmHg 89%
    06:00 +6°C° 0 mm 0 mps 737 mmHg 89%
    07:00 +6°C° 0 mm 0 mps 737 mmHg 88%
    08:00 +8°C° 0 mm 1 mps 737 mmHg 85%
    09:00 +9°C° 0 mm 1 mps 737 mmHg 83%
    10:00 +10°C° 0 mm 1 mps 737 mmHg 80%
    11:00 +11°C° 0 mm 1 mps 736 mmHg 79%
    12:00 +12°C° 0 mm 1 mps 736 mmHg 77%
    13:00 +12°C° 0 mm 2 mps 736 mmHg 76%
    14:00 +12°C° 0 mm 2 mps 735 mmHg 80%
    15:00 +11°C° 0 mm 1 mps 735 mmHg 84%
    16:00 +10°C° 0 mm 1 mps 734 mmHg 88%
    17:00 +10°C° 0 mm 1 mps 734 mmHg 87%
    18:00 +10°C° 0 mm 1 mps 734 mmHg 87%
    19:00 +10°C° 0 mm 1 mps 734 mmHg 87%
    20:00 +10°C° 0 mm 1 mps 733 mmHg 86%
    21:00 +9°C° 0 mm 2 mps 733 mmHg 85%
    22:00 +9°C° 0 mm 2 mps 733 mmHg 84%
    23:00 +9°C° 0 mm 2 mps 732 mmHg 83%

    18 November, Monday

    Time Temperature Precipitation Wind Pressure Humidity
    00:00 +9°C° 0 mm 2 mps 732 mmHg 83%
    01:00 +9°C° 0 mm 2 mps 731 mmHg 82%
    02:00 +9°C° 0 mm 2 mps 731 mmHg 81%
    03:00 +9°C° 0 mm 2 mps 730 mmHg 80%
    04:00 +9°C° 0 mm 2 mps 730 mmHg 79%
    05:00 +9°C° 0 mm 3 mps 730 mmHg 81%
    06:00 +9°C° 0 mm 3 mps 729 mmHg 83%
    07:00 +8°C° 0 mm 3 mps 729 mmHg 85%
    08:00 +9°C° 0 mm 3 mps 729 mmHg 82%
    09:00 +10°C° 0 mm 4 mps 730 mmHg 79%
    10:00 +11°C° 0 mm 4 mps 730 mmHg 77%
    11:00 +10°C° 0 mm 5 mps 730 mmHg 69%
    12:00 +12°C° 0 mm 5 mps 730 mmHg 62%
    13:00 +13°C° 0 mm 6 mps 730 mmHg 54%
    14:00 +12°C° 0 mm 5 mps 730 mmHg 59%
    15:00 +11°C° 0 mm 4 mps 731 mmHg 65%
    16:00 +8°C° 0 mm 4 mps 731 mmHg 70%
    17:00 +9°C° 0 mm 3 mps 731 mmHg 73%
    18:00 +9°C° 0 mm 3 mps 732 mmHg 77%
    19:00 +9°C° 0 mm 3 mps 732 mmHg 80%
    20:00 +8°C° 0 mm 3 mps 732 mmHg 81%
    21:00 +8°C° 0 mm 3 mps 733 mmHg 81%
    22:00 +8°C° 0 mm 3 mps 734 mmHg 82%
    23:00 +7°C° 0 mm 3 mps 734 mmHg 83%
    Show more